Sauk Centre, MN

5:23 AM CST on January 23, 2017 (GMT -0600)
Sauk Centre

Weather History for KD39 - December, 2013

Change the Weather History Date:

Monday, December 9, 2013

  Actual Average (KGHW) Record (KGHW)
Temperature  
Mean Temperature -6 °F -  
Max Temperature 0 °F 27 °F 55 °F (2006)
Min Temperature -11 °F 10 °F -19 °F (1955)
Degree Days  
Heating Degree Days 70    
Moisture  
Dew Point -12 °F    
Average Humidity 79    
Maximum Humidity 88    
Minimum Humidity 68    
Precipitation  
Precipitation 0.00 in - - ()
Sea Level Pressure  
Sea Level Pressure 29.98 in    
Wind  
Wind Speed 8 mph (West)    
Max Wind Speed 17 mph    
Max Gust Speed 24 mph    
Visibility 9 miles    
Events Snow    
Averages and records for this station are not official NWS values.
T = Trace of Precipitation, MM = Missing Value Source: NWS Daily Summary

Daily Weather History Graph

Daily Weather History Graph

Search for Another Location

Airport or City:

Trip Planner

Search our weather history database for the weather conditions in past years. The results will help you decide how hot, cold, wet, or windy it might be!

Date:

Astronomy

Dec. 09, 2013 Rise Set
Actual Time 7:48 AM CST 4:35 PM CST
Civil Twilight 7:14 AM CST 5:09 PM CST
Nautical Twilight 6:37 AM CST 5:47 PM CST
Astronomical Twilight 6:01 AM CST 6:23 PM CST
Moon 12:24 PM CST (12/9) No Moon Set
Length of Visible Light 9h 54m
Length of Day
8h 46m
Waxing Crescent, 51% of the Moon is Illuminated
Dec 9
Waxing Crescent
Dec 17
Full
Dec 25
Last Quarter
Jan 1
New
Jan 7
First Quarter

Hourly Weather History & Observations

Time (CST) Temp. Windchill Dew Point Humidity Pressure Visibility Wind Dir Wind Speed Gust Speed Precip Events Conditions
12:13 AM -3.1 °F - -5.8 °F 88% 29.98 in 7.0 mi Calm Calm - N/A Snow Light Snow
12:32 AM -3.5 °F -11.8 °F -6.3 °F 87% 29.97 in 7.0 mi West 3.5 mph - N/A Snow Light Snow
12:53 AM -2.0 °F -13.9 °F -4.7 °F 88% 29.96 in 5.0 mi West 5.8 mph - N/A Snow Light Snow
1:13 AM -0.4 °F -14.7 °F -3.6 °F 86% 29.95 in 10.0 mi West 8.1 mph - N/A Snow Light Snow
1:32 AM -0.8 °F -16.2 °F -4.0 °F 86% 29.96 in 10.0 mi West 9.2 mph - N/A   Scattered Clouds
1:53 AM -1.8 °F -17.5 °F -5.1 °F 86% 29.96 in 10.0 mi West 9.2 mph - N/A   Clear
2:13 AM -2.4 °F -17.1 °F -5.8 °F 85% 29.96 in 10.0 mi West 8.1 mph - N/A   Clear
2:32 AM -3.1 °F -15.2 °F -6.5 °F 85% 29.96 in 10.0 mi West 5.8 mph - N/A   Clear
2:53 AM -3.8 °F -18.8 °F -7.4 °F 85% 29.96 in 10.0 mi West 8.1 mph - N/A   Clear
3:13 AM -4.9 °F -21.3 °F -8.5 °F 84% 29.96 in 10.0 mi West 9.2 mph - N/A   Clear
3:32 AM -5.8 °F -25.2 °F -9.6 °F 84% 29.95 in 10.0 mi West 12.7 mph - N/A   Clear
3:53 AM -6.7 °F -24.5 °F -10.7 °F 83% 29.95 in 10.0 mi West 10.4 mph - N/A   Clear
4:13 AM -7.4 °F -24.4 °F -11.4 °F 83% 29.95 in 10.0 mi West 9.2 mph - N/A   Clear
4:32 AM -7.6 °F -24.6 °F -11.7 °F 82% 29.94 in 10.0 mi West 9.2 mph - N/A   Clear
4:53 AM -8.7 °F -27.0 °F -13.0 °F 81% 29.95 in 10.0 mi West 10.4 mph - N/A   Clear
5:13 AM -9.8 °F -27.3 °F -14.3 °F 81% 29.95 in 10.0 mi West 9.2 mph - N/A   Clear
5:33 AM -10.3 °F -25.4 °F -14.8 °F 81% 29.96 in 10.0 mi West 6.9 mph - N/A   Clear
5:53 AM -10.7 °F -24.2 °F -15.0 °F 81% 29.96 in 10.0 mi West 5.8 mph - N/A   Clear
6:12 AM -11.2 °F -26.4 °F -15.7 °F 80% 29.96 in 10.0 mi West 6.9 mph - N/A   Clear
6:33 AM -11.2 °F -29.0 °F -15.5 °F 81% 29.96 in 10.0 mi West 9.2 mph - N/A Snow Light Snow
6:53 AM -11.4 °F -30.4 °F -15.9 °F 80% 29.97 in 7.0 mi West 10.4 mph - N/A Snow Light Snow
7:12 AM -11.6 °F -31.6 °F -15.9 °F 81% 29.98 in 10.0 mi West 11.5 mph - N/A Snow Light Snow
7:33 AM -11.2 °F -32.9 °F -15.3 °F 82% 29.98 in 5.0 mi West 13.8 mph - N/A Snow Light Snow
7:53 AM -10.7 °F -32.2 °F -15.0 °F 81% 29.99 in 4.0 mi West 13.8 mph - N/A   Clear
8:13 AM -10.5 °F -29.2 °F -14.8 °F 81% 30.00 in 3.0 mi West 10.4 mph - N/A Snow Light Snow
8:33 AM -9.8 °F -26.1 °F -14.3 °F 81% 30.00 in 2.0 mi West 8.1 mph - N/A Snow Light Snow
8:53 AM -9.4 °F -26.8 °F -13.9 °F 81% 30.01 in 3.0 mi West 9.2 mph - N/A Snow Light Snow
9:13 AM -9.0 °F -30.2 °F -13.5 °F 81% 30.01 in 5.0 mi West 13.8 mph 24.2 mph N/A   Haze
9:33 AM -8.7 °F -29.7 °F -13.4 °F 80% 30.02 in 7.0 mi West 13.8 mph 19.6 mph N/A   Clear
9:53 AM -8.5 °F -28.6 °F -13.0 °F 81% 30.03 in 10.0 mi West 12.7 mph 18.4 mph N/A   Clear
10:13 AM -8.1 °F -29.0 °F -13.0 °F 79% 30.03 in 5.0 mi West 13.8 mph 20.7 mph N/A   Haze
10:33 AM -7.8 °F -29.3 °F -13.0 °F 78% 30.04 in 10.0 mi West 15.0 mph 21.9 mph N/A   Clear
10:53 AM -7.2 °F -26.2 °F -13.0 °F 76% 30.04 in 5.0 mi West 11.5 mph 20.7 mph N/A   Haze
11:13 AM -6.9 °F -23.7 °F -13.0 °F 75% 30.04 in 10.0 mi West 9.2 mph - N/A   Clear
11:33 AM -6.7 °F -27.2 °F -13.0 °F 74% 30.04 in 7.0 mi West 13.8 mph 24.2 mph N/A   Clear
11:53 AM -6.3 °F -28.2 °F -13.2 °F 72% 30.04 in 7.0 mi West 16.1 mph 23.0 mph N/A   Clear
12:13 PM -5.8 °F -24.4 °F -12.8 °F 72% 30.03 in 7.0 mi West 11.5 mph 18.4 mph N/A   Clear
12:33 PM -5.4 °F -26.3 °F -12.6 °F 71% 30.02 in 10.0 mi West 15.0 mph 21.9 mph N/A   Clear
12:53 PM -5.3 °F -26.8 °F -12.5 °F 71% 30.02 in 10.0 mi West 16.1 mph - N/A   Clear
1:13 PM -4.9 °F -27.0 °F -12.3 °F 71% 30.02 in 10.0 mi West 17.3 mph 23.0 mph N/A   Clear
1:33 PM -4.5 °F -25.9 °F -12.3 °F 69% 30.01 in 10.0 mi West 16.1 mph 21.9 mph N/A   Clear
1:53 PM -4.2 °F -24.7 °F -11.9 °F 69% 30.00 in 10.0 mi West 15.0 mph 23.0 mph N/A   Clear
2:13 PM -4.0 °F -23.7 °F -12.1 °F 68% 30.00 in 10.0 mi West 13.8 mph - N/A   Clear
2:33 PM -4.0 °F -21.2 °F -11.4 °F 71% 29.99 in 10.0 mi WSW 10.4 mph - N/A   Clear
2:52 PM -3.6 °F -21.7 °F -11.2 °F 70% 29.99 in 10.0 mi West 11.5 mph - N/A   Clear
3:13 PM -3.6 °F -19.7 °F -11.2 °F 70% 29.99 in 10.0 mi West 9.2 mph - N/A   Clear
3:33 PM -3.5 °F -19.5 °F -11.2 °F 69% 30.00 in 10.0 mi WSW 9.2 mph - N/A   Clear
3:52 PM -3.8 °F -18.8 °F -11.6 °F 69% 29.99 in 10.0 mi WSW 8.1 mph - N/A   Clear
4:13 PM -4.2 °F -19.3 °F -11.4 °F 71% 29.99 in 10.0 mi WSW 8.1 mph - N/A   Clear
4:33 PM -6.3 °F -19.1 °F -12.5 °F 75% 29.98 in 10.0 mi SW 5.8 mph - N/A   Clear
4:52 PM -8.7 °F -21.9 °F -14.1 °F 77% 29.97 in 10.0 mi South 5.8 mph - N/A   Clear
5:13 PM -9.4 °F -24.3 °F -14.3 °F 79% 29.96 in 10.0 mi SSE 6.9 mph - N/A   Clear
5:33 PM -10.3 °F -23.8 °F -14.8 °F 81% 29.96 in 10.0 mi South 5.8 mph - N/A   Clear
5:53 PM -7.1 °F -23.9 °F -11.9 °F 79% 29.95 in 10.0 mi South 9.2 mph - N/A   Scattered Clouds
6:13 PM -5.8 °F -21.2 °F -10.8 °F 79% 29.95 in 10.0 mi South 8.1 mph - N/A   Mostly Cloudy
6:32 PM -5.8 °F -22.4 °F -11.2 °F 77% 29.93 in 10.0 mi South 9.2 mph - N/A   Mostly Cloudy
6:53 PM -6.5 °F -23.3 °F -11.4 °F 79% 29.93 in 10.0 mi South 9.2 mph - N/A   Scattered Clouds
6:57 PM -6.7 °F -23.5 °F -11.6 °F 79% 29.93 in 10.0 mi South 9.2 mph - N/A   Clear